• In Deutschland
  • Länderverzeichnis
  • Für 7 Tage
  • Wassertemperatur
  • Satellitenkarten
  • Wetterkarte
  • Widgets
  • user-avatar
    Anmelden

    Stündliche Wetter Nieder-Ingelheim

    Heute, 18 Januar, Donnerstag

    Zeit Temperatur Niederschläge Wind Luftdruck Luftfeuchtigkeit
    00:00 +1°C° 0 mm 5 m/S 745 mmHg 81%
    01:00 +1°C° 0 mm 5 m/S 745 mmHg 83%
    02:00 +1°C° 0,2 mm 5 m/S 744 mmHg 84%
    03:00 +1°C° 0,2 mm 5 m/S 743 mmHg 85%
    04:00 +2°C° 0,2 mm 5 m/S 742 mmHg 86%
    05:00 +2°C° 0,8 mm 6 m/S 741 mmHg 84%
    06:00 +2°C° 0,8 mm 8 m/S 739 mmHg 82%
    07:00 +3°C° 0,8 mm 9 m/S 738 mmHg 81%
    08:00 +5°C° 0,2 mm 9 m/S 737 mmHg 81%
    09:00 +6°C° 0,2 mm 9 m/S 736 mmHg 81%
    10:00 +7°C° 0,2 mm 9 m/S 736 mmHg 81%
    11:00 +7°C° 0,2 mm 10 m/S 736 mmHg 76%
    12:00 +7°C° 0,2 mm 10 m/S 736 mmHg 72%
    13:00 +8°C° 0,2 mm 11 m/S 736 mmHg 68%
    14:00 +7°C° 0 mm 10 m/S 737 mmHg 67%
    15:00 +6°C° 0 mm 9 m/S 738 mmHg 66%
    16:00 +5°C° 0 mm 8 m/S 739 mmHg 65%
    17:00 +4°C° 0 mm 6 m/S 739 mmHg 69%
    18:00 +3°C° 0 mm 5 m/S 740 mmHg 73%
    19:00 +3°C° 0 mm 4 m/S 740 mmHg 76%
    20:00 +4°C° 0,6 mm 4 m/S 740 mmHg 78%
    21:00 +4°C° 0,6 mm 4 m/S 740 mmHg 80%
    22:00 +4°C° 0,6 mm 4 m/S 739 mmHg 82%
    23:00 +3°C° 0,1 mm 5 m/S 740 mmHg 81%

    Morgen, 19 Januar, Freitag

    Zeit Temperatur Niederschläge Wind Luftdruck Luftfeuchtigkeit
    00:00 +3°C° 0,1 mm 5 m/S 740 mmHg 79%
    01:00 +2°C° 0,1 mm 5 m/S 740 mmHg 77%
    02:00 +2°C° 0 mm 5 m/S 741 mmHg 78%
    03:00 +1°C° 0 mm 5 m/S 741 mmHg 79%
    04:00 +1°C° 0 mm 5 m/S 742 mmHg 80%
    05:00 +1°C° 0 mm 5 m/S 743 mmHg 81%
    06:00 0°C° 0 mm 4 m/S 743 mmHg 82%
    07:00 0°C° 0 mm 4 m/S 744 mmHg 83%
    08:00 0°C° 0 mm 4 m/S 744 mmHg 82%
    09:00 +1°C° 0 mm 4 m/S 745 mmHg 81%
    10:00 +1°C° 0 mm 4 m/S 745 mmHg 79%
    11:00 +1°C° 0 mm 4 m/S 745 mmHg 76%
    12:00 +3°C° 0 mm 4 m/S 745 mmHg 72%
    13:00 +4°C° 0 mm 4 m/S 745 mmHg 68%
    14:00 +4°C° 0 mm 4 m/S 745 mmHg 69%
    15:00 +3°C° 0 mm 3 m/S 745 mmHg 70%
    16:00 +3°C° 0 mm 3 m/S 745 mmHg 71%
    17:00 +3°C° 0,1 mm 3 m/S 745 mmHg 75%
    18:00 +2°C° 0,1 mm 3 m/S 745 mmHg 78%
    19:00 +1°C° 0,1 mm 3 m/S 745 mmHg 82%
    20:00 +2°C° 0,3 mm 3 m/S 745 mmHg 83%
    21:00 +2°C° 0,3 mm 3 m/S 744 mmHg 84%
    22:00 +2°C° 0,3 mm 3 m/S 744 mmHg 85%
    23:00 +1°C° 0,2 mm 4 m/S 744 mmHg 84%

    übermorgen, 20 Januar, Samstag

    Zeit Temperatur Niederschläge Wind Luftdruck Luftfeuchtigkeit
    00:00 0°C° 0,2 mm 4 m/S 744 mmHg 83%
    01:00 0°C° 0,2 mm 4 m/S 745 mmHg 83%
    02:00 0°C° 0,1 mm 4 m/S 745 mmHg 83%
    03:00 -1°C° 0,1 mm 4 m/S 745 mmHg 83%
    04:00 -1°C° 0,1 mm 4 m/S 745 mmHg 83%
    05:00 -2°C° 0 mm 4 m/S 745 mmHg 83%
    06:00 -2°C° 0 mm 4 m/S 745 mmHg 83%
    07:00 -2°C° 0 mm 4 m/S 746 mmHg 84%
    08:00 -2°C° 0 mm 4 m/S 746 mmHg 82%
    09:00 -1°C° 0 mm 4 m/S 746 mmHg 81%
    10:00 -1°C° 0 mm 4 m/S 746 mmHg 79%
    11:00 0°C° 0 mm 4 m/S 745 mmHg 77%
    12:00 +1°C° 0 mm 4 m/S 745 mmHg 74%
    13:00 +1°C° 0 mm 4 m/S 745 mmHg 72%
    14:00 +2°C° 0 mm 3 m/S 745 mmHg 73%
    15:00 +2°C° 0 mm 3 m/S 744 mmHg 74%
    16:00 +3°C° 0 mm 2 m/S 744 mmHg 75%
    17:00 +2°C° 0 mm 2 m/S 745 mmHg 79%
    18:00 +2°C° 0 mm 1 m/S 745 mmHg 82%
    19:00 +1°C° 0 mm 1 m/S 746 mmHg 85%
    20:00 +1°C° 0 mm 1 m/S 746 mmHg 86%
    21:00 +1°C° 0 mm 1 m/S 747 mmHg 87%
    22:00 +1°C° 0 mm 1 m/S 748 mmHg 88%
    23:00 +1°C° 0 mm 1 m/S 748 mmHg 88%

    21 Januar, Sonntag

    Zeit Temperatur Niederschläge Wind Luftdruck Luftfeuchtigkeit
    00:00 0°C° 0 mm 1 m/S 749 mmHg 88%
    01:00 0°C° 0 mm 1 m/S 749 mmHg 88%
    02:00 0°C° 0 mm 1 m/S 750 mmHg 89%
    03:00 0°C° 0 mm 1 m/S 750 mmHg 89%
    04:00 0°C° 0 mm 1 m/S 750 mmHg 89%
    05:00 0°C° 0 mm 1 m/S 751 mmHg 89%
    06:00 0°C° 0 mm 1 m/S 751 mmHg 88%
    07:00 0°C° 0 mm 1 m/S 751 mmHg 88%
    08:00 +1°C° 0 mm 1 m/S 752 mmHg 86%
    09:00 +1°C° 0 mm 1 m/S 752 mmHg 83%
    10:00 +2°C° 0 mm 1 m/S 752 mmHg 81%
    11:00 +2°C° 0 mm 2 m/S 752 mmHg 79%
    12:00 +2°C° 0 mm 2 m/S 752 mmHg 76%
    13:00 +3°C° 0 mm 2 m/S 752 mmHg 74%
    14:00 +3°C° 0,2 mm 2 m/S 751 mmHg 76%
    15:00 +3°C° 0,2 mm 2 m/S 751 mmHg 78%
    16:00 +3°C° 0,2 mm 2 m/S 750 mmHg 80%
    17:00 +1°C° 1,5 mm 3 m/S 750 mmHg 84%
    18:00 +1°C° 1,5 mm 3 m/S 749 mmHg 87%
    19:00 +1°C° 1,5 mm 3 m/S 748 mmHg 91%
    20:00 +1°C° 1 mm 3 m/S 748 mmHg 93%
    21:00 +2°C° 1 mm 2 m/S 748 mmHg 94%
    22:00 +2°C° 1 mm 2 m/S 747 mmHg 96%
    23:00 +3°C° 0,3 mm 2 m/S 747 mmHg 96%

    22 Januar, Montag

    Zeit Temperatur Niederschläge Wind Luftdruck Luftfeuchtigkeit
    00:00 +4°C° 0,3 mm 2 m/S 748 mmHg 97%
    01:00 +5°C° 0,3 mm 2 m/S 748 mmHg 97%
    02:00 +4°C° 0,1 mm 3 m/S 748 mmHg 97%
    03:00 +5°C° 0,1 mm 3 m/S 748 mmHg 97%
    04:00 +7°C° 0,1 mm 3 m/S 748 mmHg 96%
    05:00 +7°C° 0 mm 3 m/S 749 mmHg 97%
    06:00 +7°C° 0 mm 3 m/S 749 mmHg 97%
    07:00 +7°C° 0 mm 3 m/S 750 mmHg 97%
    08:00 +7°C° 0 mm 2 m/S 750 mmHg 97%
    09:00 +7°C° 0 mm 2 m/S 751 mmHg 97%
    10:00 +7°C° 0 mm 2 m/S 751 mmHg 97%
    11:00 +7°C° 0,2 mm 2 m/S 751 mmHg 97%
    12:00 +8°C° 0,2 mm 2 m/S 751 mmHg 96%
    13:00 +8°C° 0,2 mm 2 m/S 751 mmHg 96%
    14:00 +8°C° 0,8 mm 2 m/S 751 mmHg 96%
    15:00 +8°C° 0,8 mm 3 m/S 751 mmHg 96%
    16:00 +9°C° 0,8 mm 3 m/S 751 mmHg 96%
    17:00 +9°C° 0,1 mm 3 m/S 751 mmHg 95%
    18:00 +8°C° 0,1 mm 4 m/S 751 mmHg 94%
    19:00 +10°C° 0,1 mm 4 m/S 751 mmHg 93%
    20:00 +9°C° 0,3 mm 5 m/S 751 mmHg 93%
    21:00 +9°C° 0,3 mm 5 m/S 751 mmHg 92%
    22:00 +9°C° 0,3 mm 6 m/S 751 mmHg 91%
    23:00 +9°C° 0,2 mm 5 m/S 752 mmHg 91%

    23 Januar, Dienstag

    Zeit Temperatur Niederschläge Wind Luftdruck Luftfeuchtigkeit
    00:00 +9°C° 0,2 mm 5 m/S 752 mmHg 90%
    01:00 +9°C° 0,2 mm 5 m/S 752 mmHg 90%
    02:00 +10°C° 0,1 mm 4 m/S 752 mmHg 90%
    03:00 +10°C° 0,1 mm 4 m/S 752 mmHg 91%
    04:00 +10°C° 0,1 mm 4 m/S 753 mmHg 91%
    05:00 +10°C° 0,1 mm 4 m/S 753 mmHg 91%
    06:00 +10°C° 0,1 mm 4 m/S 753 mmHg 90%
    07:00 +10°C° 0,1 mm 4 m/S 754 mmHg 90%
    08:00 +10°C° 0,1 mm 4 m/S 754 mmHg 90%
    09:00 +10°C° 0,1 mm 4 m/S 755 mmHg 90%
    10:00 +10°C° 0,1 mm 4 m/S 756 mmHg 90%
    11:00 +11°C° 0,1 mm 4 m/S 756 mmHg 88%
    12:00 +11°C° 0,1 mm 4 m/S 756 mmHg 86%
    13:00 +12°C° 0,1 mm 5 m/S 756 mmHg 84%
    14:00 +12°C° 0,1 mm 4 m/S 757 mmHg 85%
    15:00 +11°C° 0,1 mm 4 m/S 757 mmHg 86%
    16:00 +11°C° 0,1 mm 4 m/S 757 mmHg 87%
    17:00 +11°C° 0 mm 3 m/S 758 mmHg 88%
    18:00 +10°C° 0 mm 3 m/S 758 mmHg 90%
    19:00 +10°C° 0 mm 3 m/S 758 mmHg 92%
    20:00 +10°C° 0 mm 3 m/S 759 mmHg 93%
    21:00 +10°C° 0 mm 3 m/S 759 mmHg 94%
    22:00 +9°C° 0 mm 3 m/S 759 mmHg 94%
    23:00 +9°C° 0 mm 2 m/S 759 mmHg 95%
    Mehr zeigen